| time (UTC) | temp F | wind direction | speed knots | gust knots | rain 1hr in | rain 24hr in | rain mn in | humidity % | barometer mb |
| 20260505110842 | 37 | 0 | 0.0 | 0.0 | 0.00 | 0.00 | 0.00 | 100 | |
| 20260505101641 | 37 | 0 | 0.0 | 0.0 | 0.00 | 0.00 | 0.00 | 100 | |
| 20260505100841 | 37 | 0 | 0.0 | 0.0 | 0.00 | 0.00 | 0.00 | 100 | |
| 20260505100041 | 37 | 0 | 0.0 | 0.0 | 0.00 | 0.00 | 0.00 | 100 | |
| 20260505095641 | 37 | 0 | 0.0 | 0.0 | 0.00 | 0.00 | 0.00 | 100 | |
| 20260505094841 | 37 | 0 | 0.0 | 0.0 | 0.00 | 0.00 | 0.00 | 100 | |
| 20260505094041 | 37 | 0 | 0.0 | 0.0 | 0.00 | 0.00 | 0.00 | 100 | |
| 20260505093241 | 37 | 0 | 0.0 | 0.0 | 0.00 | 0.00 | 0.00 | 100 | |
| 20260505092441 | 38 | 0 | 0.0 | 0.0 | 0.00 | 0.00 | 0.00 | 100 | |
| 20260505091641 | 38 | 0 | 0.0 | 0.0 | 0.00 | 0.00 | 0.00 | 100 | |
| 20260505090841 | 38 | 0 | 0.0 | 0.0 | 0.00 | 0.00 | 0.00 | 100 | |
| 20260505090041 | 38 | 0 | 0.0 | 0.0 | 0.00 | 0.00 | 0.00 | 100 | |
| 20260505085641 | 38 | 0 | 0.0 | 0.0 | 0.00 | 0.00 | 0.00 | 100 | |
| 20260505084841 | 38 | 0 | 0.0 | 0.0 | 0.00 | 0.00 | 0.00 | 100 | |
| 20260505084041 | 38 | 0 | 0.0 | 0.0 | 0.00 | 0.00 | 0.00 | 100 | |
| 20260505083240 | 38 | 0 | 0.0 | 0.0 | 0.00 | 0.00 | 0.00 | 100 | |
| 20260505081641 | 38 | 0 | 0.0 | 0.0 | 0.00 | 0.00 | 0.00 | 100 | |
| 20260505080842 | 38 | 0 | 0.0 | 0.0 | 0.00 | 0.00 | 0.00 | 100 | |
| 20260505080041 | 38 | 0 | 0.0 | 0.0 | 0.00 | 0.00 | 0.00 | 100 | |
| 20260505075641 | 38 | 0 | 0.0 | 0.0 | 0.00 | 0.00 | 0.00 | 100 | |
| 20260505074841 | 38 | 0 | 0.0 | 0.0 | 0.00 | 0.00 | 0.00 | 100 | |
| 20260505074041 | 38 | 0 | 0.0 | 0.0 | 0.00 | 0.00 | 0.00 | 100 | |
| 20260505073241 | 38 | 0 | 0.0 | 0.0 | 0.00 | 0.00 | 0.00 | 100 | |
| 20260505072441 | 38 | 0 | 0.0 | 0.0 | 0.00 | 0.00 | 0.00 | 100 | |
| 20260505071641 | 38 | 0 | 0.0 | 0.0 | 0.00 | 0.00 | 0.00 | 100 | |
| 20260505070840 | 38 | 0 | 0.0 | 0.0 | 0.00 | 0.00 | 0.00 | 100 | |
| 20260505070041 | 38 | 0 | 0.0 | 0.0 | 0.00 | 0.00 | 0.00 | 99 | |
| 20260505064841 | 38 | 0 | 0.0 | 0.0 | 0.00 | 0.00 | 0.00 | 99 | |
| 20260505064041 | 38 | 0 | 0.0 | 0.0 | 0.00 | 0.00 | 0.00 | 99 | |
| 20260505063241 | 38 | 0 | 0.0 | 0.0 | 0.00 | 0.00 | 0.00 | 99 | |
| 20260505062441 | 38 | 0 | 0.0 | 0.0 | 0.00 | 0.00 | 0.00 | 99 | |
| 20260505061642 | 38 | 0 | 0.0 | 0.0 | 0.00 | 0.00 | 0.00 | 99 | |
| 20260505054840 | 38 | 0 | 0.0 | 0.0 | 0.00 | 0.00 | 0.07 | 99 | |
| 20260505054042 | 38 | 0 | 0.0 | 0.0 | 0.00 | 0.00 | 0.07 | 99 | |
| 20260505053241 | 38 | 0 | 0.0 | 0.0 | 0.00 | 0.00 | 0.07 | 99 | |
| 20260505051641 | 38 | 0 | 0.0 | 0.0 | 0.00 | 0.00 | 0.07 | 98 | |
| 20260505041641 | 38 | 0 | 0.0 | 0.0 | 0.00 | 0.00 | 0.07 | 99 | |
| 20260505040041 | 38 | 0 | 0.0 | 0.0 | 0.00 | 0.00 | 0.07 | 98 | |
| 20260505033240 | 38 | 0 | 0.0 | 0.0 | 0.00 | 0.00 | 0.07 | 98 | |
| 20260505032440 | 38 | 0 | 0.0 | 0.0 | 0.00 | 0.00 | 0.07 | 98 | |
| 20260505031641 | 38 | 0 | 0.0 | 0.0 | 0.00 | 0.00 | 0.07 | 98 | |
| 20260505030841 | 38 | 0 | 0.0 | 0.0 | 0.00 | 0.00 | 0.07 | 98 | |
| 20260505030041 | 38 | 0 | 0.0 | 0.0 | 0.00 | 0.00 | 0.07 | 98 | |
| 20260505025641 | 38 | 0 | 0.0 | 0.0 | 0.00 | 0.00 | 0.07 | 98 | |
| 20260505024841 | 39 | 0 | 0.0 | 0.0 | 0.00 | 0.00 | 0.07 | 98 | |
| 20260505024041 | 39 | 0 | 0.0 | 0.0 | 0.00 | 0.00 | 0.07 | 98 | |
| 20260505023242 | 39 | 0 | 0.0 | 0.0 | 0.00 | 0.00 | 0.07 | 98 | |
| 20260505022441 | 39 | 0 | 0.0 | 0.0 | 0.00 | 0.00 | 0.06 | 98 | |
| 20260505021640 | 39 | 0 | 0.0 | 0.0 | 0.00 | 0.00 | 0.06 | 98 | |
| 20260505020841 | 39 | 0 | 0.0 | 0.0 | 0.00 | 0.00 | 0.06 | 97 | |
| 20260505015640 | 39 | 0 | 0.0 | 0.0 | 0.00 | 0.00 | 0.06 | 97 | |
| 20260505014841 | 39 | 0 | 0.0 | 0.0 | 0.00 | 0.00 | 0.06 | 97 | |
| 20260505014041 | 39 | 0 | 0.0 | 0.0 | 0.00 | 0.00 | 0.06 | 97 | |
| 20260505013241 | 39 | 0 | 0.0 | 0.0 | 0.00 | 0.00 | 0.06 | 97 | |
| 20260505012441 | 39 | 0 | 0.0 | 0.0 | 0.00 | 0.00 | 0.06 | 96 | |
| 20260505011641 | 40 | 0 | 0.0 | 0.0 | 0.00 | 0.00 | 0.05 | 95 | |
| 20260505010841 | 41 | 0 | 0.0 | 0.0 | 0.00 | 0.00 | 0.03 | 92 | |
| 20260505010041 | 43 | 0 | 0.0 | 0.0 | 0.00 | 0.00 | 0.02 | 87 | |
| 20260505005640 | 44 | 0 | 0.0 | 0.0 | 0.00 | 0.00 | 0.01 | 85 | |
| 20260505004840 | 45 | 0 | 0.0 | 0.0 | 0.00 | 0.00 | 0.01 | 83 | |
| 20260505004040 | 45 | 0 | 0.0 | 0.0 | 0.00 | 0.00 | 0.01 | 82 | |
| 20260505003242 | 46 | 0 | 0.0 | 0.0 | 0.00 | 0.00 | 0.01 | 81 | |
| 20260505001640 | 48 | 0 | 0.0 | 0.0 | 0.00 | 0.00 | 0.01 | 69 | |
| 20260505000842 | 48 | 0 | 0.0 | 0.0 | 0.00 | 0.00 | 0.01 | 73 | |
| 20260504235640 | 50 | 0 | 0.0 | 0.0 | 0.00 | 0.00 | 0.01 | 68 | |
| 20260504234841 | 51 | 0 | 0.0 | 0.0 | 0.00 | 0.00 | 0.00 | 63 | |
| 20260504234041 | 52 | 0 | 0.0 | 0.0 | 0.00 | 0.00 | 0.00 | 61 | |
| 20260504233241 | 52 | 0 | 0.0 | 0.0 | 0.00 | 0.00 | 0.00 | 62 | |
| 20260504232441 | 52 | 0 | 0.0 | 0.0 | 0.00 | 0.00 | 0.00 | 57 | |
| 20260504231641 | 52 | 0 | 0.0 | 0.0 | 0.00 | 0.00 | 0.00 | 61 | |
| 20260504230841 | 51 | 0 | 0.0 | 0.0 | 0.00 | 0.00 | 0.00 | 64 | |
| 20260504230041 | 50 | 0 | 0.0 | 0.0 | 0.00 | 0.00 | 0.00 | 67 | |
| 20260504225640 | 50 | 0 | 0.0 | 0.0 | 0.00 | 0.00 | 0.00 | 66 | |
| 20260504224841 | 49 | 0 | 0.0 | 0.0 | 0.00 | 0.00 | 0.00 | 68 | |
| 20260504223241 | 48 | 0 | 0.0 | 0.0 | 0.00 | 0.00 | 0.00 | 70 | |
| 20260504222442 | 48 | 0 | 0.0 | 0.0 | 0.00 | 0.00 | 0.00 | 73 | |
| 20260504221641 | 48 | 0 | 0.0 | 0.0 | 0.00 | 0.00 | 0.00 | 71 | |
| 20260504220840 | 48 | 0 | 0.0 | 0.0 | 0.00 | 0.00 | 0.00 | 68 | |
| 20260504215641 | 49 | 0 | 0.0 | 0.0 | 0.00 | 0.00 | 0.00 | 72 | |
| 20260504214840 | 51 | 0 | 0.0 | 0.0 | 0.00 | 0.00 | 0.00 | 61 | |
| 20260504214042 | 53 | 0 | 0.0 | 0.0 | 0.00 | 0.00 | 0.00 | 57 | |
| 20260504213241 | 55 | 0 | 0.0 | 0.0 | 0.00 | 0.00 | 0.00 | 53 | |
| 20260504212441 | 57 | 0 | 0.0 | 0.0 | 0.00 | 0.00 | 0.00 | 46 | |
| 20260504211641 | 58 | 0 | 0.0 | 0.0 | 0.00 | 0.00 | 0.00 | 45 | |
| 20260504210841 | 58 | 0 | 0.0 | 0.0 | 0.00 | 0.00 | 0.00 | 46 | |
| 20260504210041 | 57 | 0 | 0.0 | 0.0 | 0.00 | 0.00 | 0.00 | 45 | |
| 20260504205641 | 57 | 0 | 0.0 | 0.0 | 0.00 | 0.00 | 0.00 | 43 | |
| 20260504204841 | 58 | 0 | 0.0 | 0.0 | 0.00 | 0.00 | 0.00 | 47 | |
| 20260504204040 | 58 | 0 | 0.0 | 0.0 | 0.00 | 0.00 | 0.00 | 44 | |
| 20260504203242 | 58 | 0 | 0.0 | 0.0 | 0.00 | 0.00 | 0.00 | 46 | |
| 20260504202441 | 58 | 0 | 0.0 | 0.0 | 0.00 | 0.00 | 0.00 | 45 | |
| 20260504201641 | 59 | 0 | 0.0 | 0.0 | 0.00 | 0.00 | 0.00 | 45 | |
| 20260504200841 | 60 | 0 | 0.0 | 0.0 | 0.00 | 0.00 | 0.00 | 42 | |
| 20260504200041 | 60 | 0 | 0.0 | 0.0 | 0.00 | 0.00 | 0.00 | 40 | |
| 20260504195641 | 60 | 0 | 0.0 | 0.0 | 0.00 | 0.00 | 0.00 | 38 | |
| 20260504194841 | 60 | 0 | 0.0 | 0.0 | 0.00 | 0.00 | 0.00 | 43 | |
| 20260504194041 | 60 | 0 | 0.0 | 0.0 | 0.00 | 0.00 | 0.00 | 45 | |
| 20260504193242 | 60 | 0 | 0.0 | 0.0 | 0.00 | 0.00 | 0.00 | 39 | |
| 20260504192440 | 60 | 0 | 0.0 | 0.0 | 0.00 | 0.00 | 0.00 | 38 | |
| 20260504191640 | 60 | 0 | 0.0 | 0.0 | 0.00 | 0.00 | 0.00 | 42 | |
| 20260504190841 | 60 | 0 | 0.0 | 0.0 | 0.00 | 0.00 | 0.00 | 40 | |
| 20260504190041 | 60 | 0 | 0.0 | 0.0 | 0.00 | 0.00 | 0.00 | 37 | |
| 20260504185641 | 60 | 0 | 0.0 | 0.0 | 0.00 | 0.00 | 0.00 | 39 | |
| 20260504184842 | 59 | 0 | 0.0 | 0.0 | 0.00 | 0.00 | 0.00 | 40 | |
| 20260504184041 | 58 | 0 | 0.0 | 0.0 | 0.00 | 0.00 | 0.00 | 42 | |
| 20260504183241 | 57 | 0 | 0.0 | 0.0 | 0.00 | 0.00 | 0.00 | 44 | |
| 20260504182441 | 55 | 0 | 0.0 | 0.0 | 0.00 | 0.00 | 0.00 | 47 | |
| 20260504181645 | 56 | 0 | 0.0 | 0.0 | 0.00 | 0.00 | 0.00 | 43 | |
| 20260504180841 | 56 | 0 | 0.0 | 0.0 | 0.00 | 0.00 | 0.00 | 46 | |
| 20260504180041 | 54 | 0 | 0.0 | 0.0 | 0.00 | 0.00 | 0.00 | 47 | |
| 20260504175641 | 53 | 0 | 0.0 | 0.0 | 0.00 | 0.00 | 0.00 | 47 | |
| 20260504174041 | 53 | 0 | 0.0 | 0.0 | 0.00 | 0.00 | 0.00 | 49 | |
| 20260504173241 | 54 | 0 | 0.0 | 0.0 | 0.00 | 0.00 | 0.00 | 47 | |
| 20260504171641 | 52 | 0 | 0.0 | 0.0 | 0.00 | 0.00 | 0.00 | 50 | |
| 20260504170841 | 52 | 0 | 0.0 | 0.0 | 0.00 | 0.00 | 0.00 | 51 | |
| 20260504150841 | 51 | 0 | 0.0 | 0.0 | 0.00 | 0.00 | 0.00 | 52 | |
| 20260504140841 | 48 | 0 | 0.0 | 0.0 | 0.00 | 0.00 | 0.00 | 51 |